Tracking 29059 objects as of 19-Jun-2024
HD Live streaming from Space Station
objects crossing your sky now

COSMOS 1809

Track COSMOS 1809 now!
10-day predictions
COSMOS 1809 is classified as:


NORAD ID: 17241
Int'l Code: 1986-101A
Perigee: 943.6 km
Apogee: 967.8 km
Inclination: 82.5 °
Period: 104.0 minutes
Semi major axis: 7326 km
RCS: 8.1003 m2 (large)
Launch date: December 18, 1986
Source: Commonwealth of Independent States (former USSR) (CIS)
Launch site: PLESETSK MISSILE AND SPACE COMPLEX (PKMTR)
Your satellite tracking list
Your tracking list is empty




NASA's NSSDC Master Catalog

Two Line Element Set (TLE):
1 17241U 86101A   24170.92347708  .00000088  00000-0  65470-4 0  9997
2 17241  82.5293 140.6815 0016563  48.6272  11.1925 13.84333657894060
Source of the keplerian elements: AFSPC